CZ-4C DEB, 43266

Orbit data source: Space-Track

CZ-4C DEB, 43266 is space debris in SSO originally from a launch on Sat, 31 Mar 2018 UTC launched from the Taiyaun Space Center, China (TSC). Debris objects in space refer to the collection of defunct objects orbiting the Earth. Examples of debris include non-operational satellites, rocket bodies, and fragments generated from explosions, collisions, or faulty payload assembly.

Loading next visibility...
Identifier
43266, 2018-031H
Orbit
SSO
Country
Flag of CNCN / PRC
Related business
Manufacturer
Unknown
Mission
Spacecraft
Bus & Motor
Unknown
Mass
Unknown
Launch date (UTC)
2018-03-31 (8 years ago)
Launch vehicle
Unknown
Launch site
Taiyaun Space Center, China (TSC)
Object type
Payload
Rocket body
Debris
Shape & HBR
Unknown shape, 0.1 m
Radar Cross Section
Small (<0.1 m²)

Expand to show TLE details & history
Last TLE update: 8 hours ago

TLE from 8 hours ago
0 CZ-4C DEB
1 43266U 18031H   25287.88943254  .00011659  00000-0  72338-3 0  9999
2 43266  98.1566  87.5333 0022546  47.1985 313.1133 15.09683627409678
Epoch: 2025-10-14T21:20Z
TLE epoch observation values (Epoch: 2025-10-14T21:20:46.971Z)
Latitude
-0.00003°
Longitude
103.66621°
Altitude
529.581 km
Speed
7.604 km/s
True Right ascension
05h 50m 07s
True Declination
0° 00' 00"
Sunlit
Object was in partial shadow at epoch
Visualization orbit readout
Latitude
Unknown
Longitude
Unknown
Altitude
Unknown
Speed
Unknown
Apparent Right ascension
Unknown
Apparent Declination
Unknown
Sunlit
N/A
Visualization observer readout
Local Sidereal Time
23:26:31
Azimuth
Unknown
Elevation
Unknown
Doppler factor
Unknown
Orbital elements
Apogee altitude
549.764 km
Perigee altitude
518.595 km
Semi-major axis
6,912.316 km
Eccentricity
0.00225
Inclination
98.1566°
RAAN
87.5333°
Arg. of periapsis
47.1985°
True anomaly
312.92433°
Mean anomaly
313.1133°
Eccentric anomaly
313.01885°
Mean motion
3.77666 °/min
Orbital period
95.32 mins
BSTAR
0.00072338
Loading maneuver chart data...
Computing Atmospheric mass density...
Loading historical data...
Loading historical data...
Loading historical data...
Loading historical data...
Loading historical data...
Loading historical data...
Loading historical data...

Documentation

Showing up to 5 results
|